Torna al catalogo

DMSP 5D-2 F11 DEB

AttivoSSO
NORAD 28309·DEBRIS·🇺🇸 United States

Lanciato Nov 28, 1991 da Vandenberg Space Force Base

Loading…

Prossimi Passaggi (prossime 24 ore)

TLE

AggiornatoSource: Space-Track

Epoca: Sep 14, 2026, 08:32 UTC

1 28309U 91082W   26257.35567770  .00000056  00000-0  44514-4 0  9997
2 28309  98.7036 278.5701 0014631 356.0538  15.8927 14.22696589162229

Traccia DMSP 5D-2 F11 DEB in tempo reale con AllMySat

Download on the App Store